| time (UTC) | temp C | wind direction | speed KPH | gust KPH | rain 1hr cm | rain 24hr cm | rain mn cm | humidity % | barometer mb |
| 20260505112006 | 7 | 302 | 0.0 | 0.0 | 0.00 | 0.05 | 0.05 | 83 | 1010.6 |
| 20260505111516 | 7 | 302 | 0.0 | 0.0 | 0.00 | 0.05 | 0.05 | 84 | 1010.6 |
| 20260505111005 | 7 | 302 | 0.0 | 0.0 | 0.00 | 0.05 | 0.05 | 84 | 1010.7 |
| 20260505110505 | 7 | 302 | 0.0 | 0.0 | 0.00 | 0.05 | 0.05 | 84 | 1010.7 |
| 20260505101529 | 8 | 302 | 0.0 | 0.0 | 0.00 | 0.05 | 0.05 | 80 | 1010.9 |
| 20260505101004 | 8 | 302 | 0.0 | 0.0 | 0.00 | 0.05 | 0.05 | 80 | 1010.9 |
| 20260505100508 | 8 | 302 | 0.0 | 0.0 | 0.00 | 0.05 | 0.05 | 80 | 1010.9 |
| 20260505100020 | 8 | 302 | 0.0 | 0.0 | 0.00 | 0.05 | 0.05 | 81 | 1011.0 |
| 20260505095508 | 8 | 302 | 0.0 | 0.0 | 0.00 | 0.05 | 0.05 | 82 | 1010.9 |
| 20260505095002 | 8 | 302 | 0.0 | 0.0 | 0.00 | 0.05 | 0.05 | 83 | 1010.9 |
| 20260505094514 | 8 | 302 | 0.0 | 0.0 | 0.00 | 0.05 | 0.05 | 82 | 1010.9 |
| 20260505094008 | 8 | 302 | 0.0 | 0.0 | 0.00 | 0.05 | 0.05 | 81 | 1010.8 |
| 20260505093504 | 8 | 302 | 0.0 | 0.0 | 0.00 | 0.05 | 0.05 | 81 | 1010.8 |
| 20260505093023 | 8 | 302 | 0.0 | 0.0 | 0.00 | 0.05 | 0.05 | 81 | 1010.6 |
| 20260505092509 | 8 | 302 | 0.0 | 1.6 | 0.00 | 0.05 | 0.05 | 81 | 1010.6 |
| 20260505092009 | 8 | 302 | 0.0 | 3.2 | 0.00 | 0.05 | 0.05 | 82 | 1010.2 |
| 20260505091513 | 8 | 302 | 0.0 | 3.2 | 0.00 | 0.05 | 0.05 | 82 | 1010.0 |
| 20260505091007 | 8 | 302 | 0.0 | 0.0 | 0.00 | 0.05 | 0.05 | 82 | 1010.0 |
| 20260505090507 | 8 | 302 | 0.0 | 0.0 | 0.00 | 0.05 | 0.05 | 82 | 1010.1 |
| 20260505090026 | 8 | 302 | 0.0 | 0.0 | 0.00 | 0.05 | 0.05 | 82 | 1010.0 |
| 20260505085508 | 8 | 302 | 0.0 | 0.0 | 0.00 | 0.05 | 0.05 | 81 | 1010.0 |
| 20260505085009 | 8 | 302 | 0.0 | 0.0 | 0.00 | 0.05 | 0.05 | 81 | 1009.9 |
| 20260505084520 | 8 | 302 | 0.0 | 0.0 | 0.00 | 0.05 | 0.05 | 80 | 1009.9 |
| 20260505084007 | 8 | 302 | 0.0 | 0.0 | 0.00 | 0.05 | 0.05 | 81 | 1009.9 |
| 20260505083510 | 8 | 302 | 0.0 | 0.0 | 0.00 | 0.05 | 0.05 | 82 | 1010.0 |
| 20260505083023 | 8 | 302 | 0.0 | 0.0 | 0.00 | 0.05 | 0.05 | 83 | 1009.9 |
| 20260505082507 | 8 | 302 | 0.0 | 0.0 | 0.00 | 0.05 | 0.05 | 83 | 1009.8 |
| 20260505082007 | 8 | 302 | 0.0 | 0.0 | 0.00 | 0.05 | 0.05 | 83 | 1009.7 |
| 20260505081505 | 8 | 302 | 0.0 | 0.0 | 0.00 | 0.05 | 0.05 | 83 | 1009.6 |
| 20260505081004 | 8 | 302 | 0.0 | 0.0 | 0.00 | 0.05 | 0.05 | 83 | 1009.5 |
| 20260505080504 | 8 | 302 | 0.0 | 0.0 | 0.00 | 0.05 | 0.05 | 83 | 1009.3 |
| 20260505080003 | 8 | 302 | 0.0 | 0.0 | 0.03 | 0.05 | 0.05 | 83 | 1009.3 |
| 20260505075503 | 8 | 302 | 0.0 | 0.0 | 0.03 | 0.05 | 0.05 | 84 | 1009.1 |
| 20260505075002 | 8 | 302 | 0.0 | 0.0 | 0.03 | 0.05 | 0.05 | 85 | 1009.3 |
| 20260505074503 | 8 | 302 | 0.0 | 0.0 | 0.03 | 0.05 | 0.05 | 86 | 1009.3 |
| 20260505074002 | 8 | 302 | 0.0 | 0.0 | 0.03 | 0.05 | 0.05 | 85 | 1009.2 |
| 20260505073505 | 8 | 302 | 0.0 | 0.0 | 0.03 | 0.05 | 0.05 | 85 | 1009.4 |
| 20260505073005 | 8 | 302 | 0.0 | 0.0 | 0.03 | 0.05 | 0.05 | 85 | 1009.4 |
| 20260505072502 | 8 | 302 | 0.0 | 0.0 | 0.03 | 0.05 | 0.05 | 85 | 1009.4 |
| 20260505072002 | 8 | 302 | 0.0 | 0.0 | 0.03 | 0.05 | 0.05 | 87 | 1009.3 |
| 20260505071507 | 8 | 302 | 0.0 | 0.0 | 0.03 | 0.05 | 0.05 | 86 | 1009.2 |
| 20260505071002 | 8 | 302 | 0.0 | 0.0 | 0.05 | 0.05 | 0.05 | 86 | 1009.3 |
| 20260505070506 | 8 | 302 | 0.0 | 0.0 | 0.05 | 0.05 | 0.05 | 86 | 1009.3 |
| 20260505070003 | 8 | 302 | 0.0 | 0.0 | 0.03 | 0.03 | 0.03 | 86 | 1009.5 |
| 20260505065503 | 8 | 302 | 0.0 | 0.0 | 0.03 | 0.03 | 0.03 | 86 | 1009.1 |
| 20260505065003 | 8 | 302 | 0.0 | 0.0 | 0.03 | 0.03 | 0.03 | 86 | 1008.8 |
| 20260505064503 | 8 | 302 | 0.0 | 0.0 | 0.03 | 0.03 | 0.03 | 85 | 1008.9 |
| 20260505064003 | 8 | 302 | 0.0 | 0.0 | 0.03 | 0.03 | 0.03 | 83 | 1009.0 |
| 20260505063503 | 8 | 302 | 0.0 | 0.0 | 0.03 | 0.03 | 0.03 | 83 | 1009.3 |
| 20260505063003 | 8 | 302 | 0.0 | 1.6 | 0.03 | 0.03 | 0.03 | 82 | 1009.2 |
| 20260505062508 | 8 | 302 | 0.0 | 1.6 | 0.03 | 0.03 | 0.03 | 80 | 1009.1 |
| 20260505062001 | 8 | 302 | 0.0 | 3.2 | 0.03 | 0.03 | 0.03 | 75 | 1009.4 |
| 20260505061509 | 9 | 302 | 0.0 | 9.7 | 0.03 | 0.03 | 0.03 | 73 | 1009.9 |
| 20260505061001 | 9 | 302 | 1.6 | 9.7 | 0.00 | 0.00 | 0.00 | 71 | 1010.0 |
| 20260505060506 | 9 | 355 | 1.6 | 4.8 | 0.00 | 0.00 | 0.00 | 71 | 1009.6 |
| 20260505060010 | 8 | 5 | 0.0 | 3.2 | 0.00 | 0.00 | 0.00 | 72 | 1009.1 |
| 20260505055503 | 9 | 324 | 0.0 | 4.8 | 0.00 | 0.00 | 0.00 | 71 | 1009.1 |
| 20260505055003 | 9 | 324 | 1.6 | 4.8 | 0.00 | 0.00 | 0.00 | 71 | 1009.4 |
| 20260505054503 | 9 | 323 | 1.6 | 4.8 | 0.00 | 0.00 | 0.00 | 72 | 1009.5 |
| 20260505054002 | 9 | 323 | 0.0 | 6.4 | 0.00 | 0.00 | 0.00 | 72 | 1009.4 |
| 20260505053505 | 9 | 321 | 1.6 | 6.4 | 0.00 | 0.00 | 0.00 | 71 | 1009.6 |
| 20260505053007 | 9 | 325 | 1.6 | 6.4 | 0.00 | 0.00 | 0.00 | 71 | 1009.4 |
| 20260505052504 | 8 | 355 | 1.6 | 6.4 | 0.00 | 0.00 | 0.00 | 72 | 1009.1 |
| 20260505052006 | 8 | 26 | 0.0 | 3.2 | 0.00 | 0.00 | 0.00 | 72 | 1009.1 |
| 20260505051520 | 8 | 37 | 0.0 | 8.0 | 0.00 | 0.00 | 0.00 | 72 | 1009.0 |
| 20260505051005 | 9 | 37 | 1.6 | 8.0 | 0.00 | 0.00 | 0.00 | 71 | 1009.1 |
| 20260505050511 | 9 | 352 | 1.6 | 12.9 | 0.00 | 0.00 | 0.00 | 71 | 1009.3 |
| 20260505041508 | 12 | 320 | 8.0 | 19.3 | 0.00 | 0.00 | 0.00 | 47 | 1009.9 |
| 20260505041006 | 12 | 338 | 3.2 | 12.9 | 0.00 | 0.00 | 0.00 | 47 | 1009.6 |
| 20260505040506 | 12 | 338 | 3.2 | 14.5 | 0.00 | 0.00 | 0.00 | 46 | 1009.7 |
| 20260505040013 | 12 | 344 | 1.6 | 19.3 | 0.00 | 0.00 | 0.00 | 46 | 1009.5 |
| 20260505035503 | 12 | 333 | 4.8 | 19.3 | 0.00 | 0.00 | 0.00 | 45 | 1009.4 |
| 20260505035005 | 12 | 346 | 6.4 | 16.1 | 0.00 | 0.00 | 0.00 | 46 | 1009.2 |
| 20260505034514 | 12 | 355 | 3.2 | 11.3 | 0.00 | 0.00 | 0.00 | 47 | 1009.1 |
| 20260505034004 | 12 | 11 | 3.2 | 11.3 | 0.00 | 0.00 | 0.00 | 47 | 1009.0 |
| 20260505033504 | 12 | 347 | 4.8 | 24.1 | 0.00 | 0.00 | 0.00 | 46 | 1009.1 |
| 20260505033010 | 12 | 360 | 4.8 | 24.1 | 0.00 | 0.00 | 0.00 | 46 | 1008.7 |
| 20260505032504 | 12 | 300 | 6.4 | 14.5 | 0.00 | 0.00 | 0.00 | 45 | 1008.9 |
| 20260505032007 | 12 | 355 | 6.4 | 19.3 | 0.00 | 0.00 | 0.00 | 45 | 1008.7 |
| 20260505031507 | 12 | 343 | 4.8 | 19.3 | 0.00 | 0.00 | 0.00 | 45 | 1008.9 |
| 20260505031003 | 13 | 313 | 6.4 | 17.7 | 0.00 | 0.00 | 0.00 | 44 | 1009.1 |
| 20260505030503 | 13 | 331 | 4.8 | 17.7 | 0.00 | 0.00 | 0.00 | 45 | 1008.8 |
| 20260505030012 | 13 | 297 | 4.8 | 17.7 | 0.00 | 0.00 | 0.00 | 45 | 1008.5 |
| 20260505025504 | 13 | 292 | 6.4 | 17.7 | 0.00 | 0.00 | 0.00 | 44 | 1008.7 |
| 20260505025004 | 13 | 331 | 6.4 | 17.7 | 0.00 | 0.00 | 0.00 | 45 | 1008.4 |
| 20260505024516 | 13 | 326 | 6.4 | 20.9 | 0.00 | 0.00 | 0.00 | 45 | 1008.7 |
| 20260505024006 | 13 | 309 | 11.3 | 27.4 | 0.00 | 0.00 | 0.00 | 45 | 1008.1 |
| 20260505023505 | 13 | 347 | 6.4 | 27.4 | 0.00 | 0.00 | 0.00 | 45 | 1007.6 |
| 20260505023015 | 13 | 360 | 4.8 | 17.7 | 0.00 | 0.00 | 0.00 | 44 | 1007.7 |
| 20260505022507 | 13 | 340 | 4.8 | 22.5 | 0.00 | 0.00 | 0.00 | 44 | 1007.5 |
| 20260505022004 | 13 | 325 | 6.4 | 25.7 | 0.00 | 0.00 | 0.00 | 44 | 1007.8 |
| 20260505021516 | 13 | 340 | 11.3 | 25.7 | 0.00 | 0.00 | 0.00 | 44 | 1007.6 |
| 20260505021006 | 13 | 311 | 6.4 | 22.5 | 0.00 | 0.00 | 0.00 | 45 | 1007.4 |
| 20260505020506 | 13 | 332 | 8.0 | 19.3 | 0.00 | 0.00 | 0.00 | 44 | 1007.4 |
| 20260505020010 | 13 | 316 | 8.0 | 20.9 | 0.00 | 0.00 | 0.00 | 45 | 1007.4 |
| 20260505015503 | 13 | 348 | 9.7 | 20.9 | 0.00 | 0.00 | 0.00 | 44 | 1007.4 |
| 20260505015003 | 13 | 340 | 8.0 | 20.9 | 0.00 | 0.00 | 0.00 | 44 | 1007.4 |
| 20260505014508 | 14 | 360 | 8.0 | 25.7 | 0.00 | 0.00 | 0.00 | 44 | 1007.2 |
| 20260505014012 | 14 | 5 | 9.7 | 25.7 | 0.00 | 0.00 | 0.00 | 44 | 1006.9 |
| 20260505013507 | 14 | 351 | 6.4 | 22.5 | 0.00 | 0.00 | 0.00 | 43 | 1007.0 |
| 20260505013008 | 15 | 5 | 8.0 | 22.5 | 0.00 | 0.00 | 0.00 | 41 | 1006.7 |
| 20260505012504 | 15 | 339 | 9.7 | 32.2 | 0.00 | 0.00 | 0.00 | 40 | 1006.8 |
| 20260505012009 | 15 | 352 | 8.0 | 32.2 | 0.00 | 0.00 | 0.00 | 40 | 1006.5 |
| 20260505011509 | 15 | 24 | 8.0 | 29.0 | 0.00 | 0.00 | 0.00 | 39 | 1006.5 |
| 20260505011005 | 16 | 360 | 8.0 | 35.4 | 0.00 | 0.00 | 0.00 | 39 | 1006.5 |
| 20260505010508 | 16 | 319 | 11.3 | 35.4 | 0.00 | 0.00 | 0.00 | 39 | 1006.4 |
| 20260505010018 | 16 | 5 | 9.7 | 22.5 | 0.00 | 0.00 | 0.00 | 39 | 1006.5 |
| 20260505005507 | 16 | 333 | 9.7 | 24.1 | 0.00 | 0.00 | 0.00 | 37 | 1006.4 |
| 20260505005007 | 17 | 331 | 4.8 | 24.1 | 0.00 | 0.00 | 0.00 | 37 | 1006.1 |
| 20260505004518 | 17 | 355 | 8.0 | 24.1 | 0.00 | 0.00 | 0.00 | 37 | 1006.0 |
| 20260505004002 | 17 | 31 | 4.8 | 27.4 | 0.00 | 0.00 | 0.00 | 36 | 1006.0 |
| 20260505003507 | 17 | 336 | 9.7 | 27.4 | 0.00 | 0.00 | 0.00 | 35 | 1005.9 |
| 20260505003021 | 17 | 360 | 6.4 | 22.5 | 0.00 | 0.00 | 0.00 | 35 | 1005.8 |
| 20260505002506 | 18 | 317 | 6.4 | 22.5 | 0.00 | 0.00 | 0.00 | 35 | 1005.7 |
| 20260505002007 | 18 | 360 | 8.0 | 24.1 | 0.00 | 0.00 | 0.00 | 36 | 1005.5 |
| 20260505001514 | 19 | 333 | 6.4 | 24.1 | 0.00 | 0.00 | 0.00 | 35 | 1005.4 |
| 20260505001006 | 19 | 312 | 6.4 | 19.3 | 0.00 | 0.00 | 0.00 | 35 | 1005.3 |
| 20260505000505 | 19 | 349 | 6.4 | 22.5 | 0.00 | 0.00 | 0.00 | 36 | 1005.3 |
| 20260505000019 | 20 | 305 | 8.0 | 24.1 | 0.00 | 0.00 | 0.00 | 35 | 1005.3 |
| 20260504235508 | 20 | 337 | 6.4 | 24.1 | 0.00 | 0.00 | 0.00 | 35 | 1005.3 |
| 20260504235012 | 20 | 346 | 9.7 | 22.5 | 0.00 | 0.00 | 0.00 | 34 | 1005.2 |
| 20260504234520 | 20 | 5 | 6.4 | 17.7 | 0.00 | 0.00 | 0.00 | 34 | 1005.2 |
| 20260504234006 | 20 | 348 | 6.4 | 16.1 | 0.00 | 0.00 | 0.00 | 34 | 1005.2 |
| 20260504233506 | 20 | 346 | 6.4 | 16.1 | 0.00 | 0.00 | 0.00 | 33 | 1005.2 |
| 20260504233014 | 20 | 352 | 6.4 | 16.1 | 0.00 | 0.00 | 0.00 | 35 | 1005.0 |
| 20260504232506 | 21 | 318 | 4.8 | 17.7 | 0.00 | 0.00 | 0.00 | 33 | 1004.8 |
| 20260504232006 | 21 | 343 | 6.4 | 27.4 | 0.00 | 0.00 | 0.00 | 33 | 1004.7 |
| 20260504231518 | 21 | 325 | 9.7 | 27.4 | 0.00 | 0.00 | 0.00 | 32 | 1004.5 |
| 20260504231008 | 22 | 322 | 9.7 | 27.4 | 0.00 | 0.00 | 0.00 | 31 | 1004.5 |
| 20260504230508 | 22 | 303 | 11.3 | 27.4 | 0.00 | 0.00 | 0.00 | 31 | 1004.4 |
| 20260504230020 | 22 | 350 | 8.0 | 19.3 | 0.00 | 0.00 | 0.00 | 30 | 1004.3 |
| 20260504225514 | 22 | 321 | 4.8 | 22.5 | 0.00 | 0.00 | 0.00 | 34 | 1004.0 |
| 20260504225006 | 22 | 325 | 9.7 | 22.5 | 0.00 | 0.00 | 0.00 | 30 | 1003.9 |
| 20260504224504 | 23 | 338 | 8.0 | 20.9 | 0.00 | 0.00 | 0.00 | 30 | 1003.7 |
| 20260504224003 | 23 | 327 | 8.0 | 19.3 | 0.00 | 0.00 | 0.00 | 32 | 1003.6 |
| 20260504223503 | 23 | 360 | 6.4 | 27.4 | 0.00 | 0.00 | 0.00 | 31 | 1003.5 |
| 20260504223005 | 23 | 307 | 8.0 | 27.4 | 0.00 | 0.00 | 0.00 | 33 | 1003.6 |
| 20260504222504 | 23 | 352 | 11.3 | 20.9 | 0.00 | 0.00 | 0.00 | 33 | 1003.4 |
| 20260504222003 | 23 | 337 | 6.4 | 19.3 | 0.00 | 0.00 | 0.00 | 32 | 1003.3 |
| 20260504221503 | 24 | 337 | 4.8 | 16.1 | 0.00 | 0.00 | 0.00 | 31 | 1003.2 |
| 20260504221007 | 25 | 14 | 6.4 | 16.1 | 0.00 | 0.00 | 0.00 | 30 | 1003.1 |
| 20260504220503 | 25 | 323 | 6.4 | 17.7 | 0.00 | 0.00 | 0.00 | 30 | 1003.0 |
| 20260504220003 | 24 | 333 | 6.4 | 20.9 | 0.00 | 0.00 | 0.00 | 31 | 1003.0 |
| 20260504215503 | 25 | 328 | 8.0 | 20.9 | 0.00 | 0.00 | 0.00 | 30 | 1003.0 |
| 20260504215007 | 25 | 326 | 8.0 | 20.9 | 0.00 | 0.00 | 0.00 | 30 | 1002.8 |
| 20260504214504 | 25 | 333 | 6.4 | 16.1 | 0.00 | 0.00 | 0.00 | 32 | 1002.9 |
| 20260504214003 | 25 | 115 | 3.2 | 16.1 | 0.00 | 0.00 | 0.00 | 30 | 1002.8 |
| 20260504213503 | 25 | 294 | 6.4 | 22.5 | 0.00 | 0.00 | 0.00 | 32 | 1002.8 |
| 20260504213005 | 25 | 348 | 9.7 | 22.5 | 0.00 | 0.00 | 0.00 | 29 | 1002.8 |
| 20260504212504 | 26 | 5 | 6.4 | 16.1 | 0.00 | 0.00 | 0.00 | 31 | 1002.7 |
| 20260504212004 | 26 | 334 | 4.8 | 14.5 | 0.00 | 0.00 | 0.00 | 33 | 1002.7 |
| 20260504211513 | 26 | 349 | 3.2 | 16.1 | 0.00 | 0.00 | 0.00 | 32 | 1002.6 |
| 20260504211003 | 26 | 342 | 4.8 | 19.3 | 0.00 | 0.00 | 0.00 | 34 | 1002.6 |
| 20260504210505 | 25 | 355 | 9.7 | 20.9 | 0.00 | 0.00 | 0.00 | 33 | 1002.6 |
| 20260504210011 | 26 | 329 | 8.0 | 20.9 | 0.00 | 0.00 | 0.00 | 32 | 1002.6 |
| 20260504205506 | 26 | 351 | 6.4 | 16.1 | 0.00 | 0.00 | 0.00 | 33 | 1002.6 |
| 20260504205004 | 26 | 340 | 4.8 | 12.9 | 0.00 | 0.00 | 0.00 | 36 | 1002.5 |
| 20260504204507 | 26 | 36 | 6.4 | 20.9 | 0.00 | 0.00 | 0.00 | 32 | 1002.5 |
| 20260504204004 | 26 | 346 | 4.8 | 20.9 | 0.00 | 0.00 | 0.00 | 34 | 1002.5 |
| 20260504203506 | 26 | 324 | 6.4 | 19.3 | 0.00 | 0.00 | 0.00 | 37 | 1002.5 |
| 20260504203004 | 26 | 327 | 3.2 | 14.5 | 0.00 | 0.00 | 0.00 | 38 | 1002.4 |
| 20260504202508 | 26 | 360 | 3.2 | 19.3 | 0.00 | 0.00 | 0.00 | 37 | 1002.4 |
| 20260504202004 | 26 | 347 | 4.8 | 19.3 | 0.00 | 0.00 | 0.00 | 37 | 1002.4 |
| 20260504201505 | 26 | 301 | 9.7 | 17.7 | 0.00 | 0.00 | 0.00 | 37 | 1002.4 |
| 20260504201009 | 26 | 154 | 4.8 | 17.7 | 0.00 | 0.00 | 0.00 | 35 | 1002.4 |
| 20260504200506 | 26 | 360 | 4.8 | 17.7 | 0.00 | 0.00 | 0.00 | 36 | 1002.4 |
| 20260504200006 | 26 | 326 | 9.7 | 17.7 | 0.00 | 0.00 | 0.00 | 36 | 1002.4 |
| 20260504195507 | 26 | 360 | 4.8 | 14.5 | 0.00 | 0.00 | 0.00 | 36 | 1002.4 |
| 20260504195003 | 26 | 304 | 3.2 | 24.1 | 0.00 | 0.00 | 0.00 | 36 | 1002.3 |
| 20260504194521 | 26 | 349 | 11.3 | 24.1 | 0.00 | 0.00 | 0.00 | 36 | 1002.3 |
| 20260504194004 | 26 | 335 | 8.0 | 22.5 | 0.00 | 0.00 | 0.00 | 37 | 1002.2 |
| 20260504193507 | 26 | 306 | 8.0 | 22.5 | 0.00 | 0.00 | 0.00 | 37 | 1002.2 |
| 20260504193019 | 26 | 342 | 6.4 | 19.3 | 0.00 | 0.00 | 0.00 | 37 | 1002.2 |
| 20260504192504 | 27 | 313 | 6.4 | 17.7 | 0.00 | 0.00 | 0.00 | 39 | 1002.2 |
| 20260504192004 | 26 | 5 | 4.8 | 20.9 | 0.00 | 0.00 | 0.00 | 35 | 1002.1 |
| 20260504191520 | 26 | 302 | 11.3 | 20.9 | 0.00 | 0.00 | 0.00 | 33 | 1002.1 |
| 20260504191006 | 27 | 360 | 9.7 | 19.3 | 0.00 | 0.00 | 0.00 | 35 | 1002.1 |
| 20260504190504 | 27 | 318 | 8.0 | 19.3 | 0.00 | 0.00 | 0.00 | 34 | 1002.0 |
| 20260504190011 | 27 | 10 | 8.0 | 19.3 | 0.00 | 0.00 | 0.00 | 33 | 1001.9 |
| 20260504185504 | 27 | 322 | 9.7 | 19.3 | 0.00 | 0.00 | 0.00 | 32 | 1001.8 |
| 20260504185005 | 27 | 311 | 6.4 | 17.7 | 0.00 | 0.00 | 0.00 | 34 | 1001.8 |
| 20260504184509 | 27 | 313 | 9.7 | 17.7 | 0.00 | 0.00 | 0.00 | 30 | 1001.8 |
| 20260504184009 | 27 | 323 | 6.4 | 22.5 | 0.00 | 0.00 | 0.00 | 32 | 1001.7 |
| 20260504183508 | 27 | 327 | 4.8 | 22.5 | 0.00 | 0.00 | 0.00 | 32 | 1001.7 |
| 20260504183006 | 27 | 325 | 4.8 | 17.7 | 0.00 | 0.00 | 0.00 | 35 | 1001.6 |
| 20260504182505 | 27 | 319 | 8.0 | 17.7 | 0.00 | 0.00 | 0.00 | 33 | 1001.7 |
| 20260504182011 | 26 | 290 | 3.2 | 16.1 | 0.00 | 0.00 | 0.00 | 36 | 1001.7 |
| 20260504181506 | 26 | 321 | 4.8 | 17.7 | 0.00 | 0.00 | 0.00 | 32 | 1001.7 |
| 20260504181004 | 26 | 313 | 9.7 | 17.7 | 0.00 | 0.00 | 0.00 | 32 | 1001.7 |
| 20260504180505 | 27 | 319 | 1.6 | 14.5 | 0.00 | 0.00 | 0.00 | 33 | 1001.7 |
| 20260504180010 | 27 | 302 | 4.8 | 14.5 | 0.00 | 0.00 | 0.00 | 35 | 1001.7 |
| 20260504175504 | 27 | 333 | 6.4 | 14.5 | 0.00 | 0.00 | 0.00 | 34 | 1001.8 |
| 20260504175005 | 26 | 319 | 3.2 | 12.9 | 0.00 | 0.00 | 0.00 | 34 | 1001.8 |
| 20260504174512 | 26 | 253 | 4.8 | 17.7 | 0.00 | 0.00 | 0.00 | 31 | 1001.8 |
| 20260504174006 | 26 | 327 | 6.4 | 20.9 | 0.00 | 0.00 | 0.00 | 33 | 1001.8 |
| 20260504173505 | 26 | 319 | 8.0 | 20.9 | 0.00 | 0.00 | 0.00 | 33 | 1001.9 |
| 20260504173015 | 26 | 321 | 9.7 | 17.7 | 0.00 | 0.00 | 0.00 | 33 | 1002.0 |
| 20260504172507 | 26 | 282 | 6.4 | 25.7 | 0.00 | 0.00 | 0.00 | 34 | 1001.9 |
| 20260504172002 | 26 | 328 | 9.7 | 25.7 | 0.00 | 0.00 | 0.00 | 33 | 1001.9 |
| 20260504171512 | 26 | 314 | 9.7 | 19.3 | 0.00 | 0.00 | 0.00 | 35 | 1002.1 |
| 20260504171008 | 26 | 300 | 6.4 | 14.5 | 0.00 | 0.00 | 0.00 | 38 | 1002.1 |
| 20260504170510 | 25 | 240 | 1.6 | 14.5 | 0.00 | 0.00 | 0.00 | 37 | 1002.0 |
| 20260504151014 | 21 | 309 | 6.4 | 11.3 | 0.00 | 0.00 | 0.00 | 46 | 1002.2 |
| 20260504150507 | 21 | 324 | 3.2 | 11.3 | 0.00 | 0.00 | 0.00 | 44 | 1002.2 |
| 20260504141007 | 17 | 355 | 4.8 | 8.0 | 0.00 | 0.00 | 0.00 | 51 | 1002.6 |
| 20260504140511 | 17 | 302 | 3.2 | 9.7 | 0.00 | 0.00 | 0.00 | 55 | 1002.7 |
| 20260504130503 | 13 | 346 | 0.0 | 4.8 | 0.00 | 0.00 | 0.00 | 71 | 1002.5 |